User: anonymous   Login
Location: Ehrke Reservoir
(40.0279°N, 99.6641°W)
Time: 21:51:57
(UTC+00:00)
Language:

Shenzhou-11 Module - Orbit

View from above orbital plane
View from above orbital plane
View from above satellite
View from above satellite

Ground track
Ground track

The orbit data is extracted from the following two-line orbital elements,

1 41868U 16061G   20093.18864583 +.00044569 +89789-5 +13714-3 0  9991
2 41868 042.7892 256.5930 0013667 312.6930 028.2641 15.91783016193881
Epoch (UTC): 02 April 2020 04:31:39
Eccentricity: 0.0013667
inclination: 42.7892°
perigee height: 288 km
apogee height: 306 km
right ascension of ascending node: 256.5930°
argument of perigee: 312.6930°
revolutions per day: 15.91783016
mean anomaly at epoch: 28.2641°
orbit number at epoch: 19388

The dashed part of the orbit path shows where the satellite is in the earth's shadow,  

DLR